Erfindungsreiche Rückkehr
| Name | Erfindungsreiche Rückkehr |
|---|---|
| Muster | Resourceful Return |
| Art | Hexerei |
| Beschreibung | Bringe eine Kreaturenkarte deiner Wahl aus deinem Friedhof auf deine Hand zurück. Falls du ein Artefakt kontrollierst, ziehe eine Karte. |
| Geschmack | Als das Bergungsteam mit einem zerschmetterten Mechakoloss heimkehrte, wogte eine Welle der Begeisterung durch die Schmiede der Renegaten. |
| Künstler | Titus Lunter |
| Edition | Äther-Revolte #70 |
| Tapete | |
| Bild |
Um Erfindungsreiche Rückkehr
Erfindungsreiche Rückkehr, Hexerei, entworfen von Titus Lunter Erstveröffentlichung in Januar 2017 bei der Bearbeitung Aether Revolt. Es wird derzeit zum niedrigsten Preis von verkauft € 0,31.
Ein Deck, das sich auf Friedhofsrekursion und Artefaktsynergie konzentriert, würde von der Verwendung von Resourceful Return in Magic: the Gathering profitieren. Decks, die Karten wie Artefakte verwenden, um zusätzliche Karten zu ziehen oder zusätzliche Vorteile zu bieten, würden diese Karte besonders nützlich finden. Auch wenn möglicherweise effizientere Optionen verfügbar sind, wie zum Beispiel „Totengräber“ für die direkte Kreaturenrekursion oder „Phyrexianische Wut“ für das Ziehen von Karten, könnte „Einfallsreiche Rückkehr“ dennoch in Decks zum Einsatz kommen, die nach einer vielseitigen Option suchen, die beide Effekte kombiniert.
Regeln
09/02/2017
You can’t cast Resourceful Return without a target creature card in your graveyard.
Wo zu kaufen
![]() | Card Kingdom | 36 uni.
| € 0,31 | Shop besuchen |
![]() | Ebay.com | Shop besuchen | ||
![]() | Cardkingdom | Shop besuchen | ||
![]() | Printing proxies | $ 0.75 | Shop besuchen |
*Diese Website enthält Affiliate-Links, für die wir möglicherweise eine Vergütung erhalten
Eine Gruppe
Preisalarm ?
Benachrichtigen Sie mich, wenn der Preis hereinkommt
Geschichte der Preisentwicklung

Preisgeschichte
| Datum | Minimaler Preis | Durchschnittlicher Preis | Decks |
|---|---|---|---|
| 2024-09-05 | 0.05 EUR | 0.19 EUR | 0 |
| 2024-09-09 | 0.05 EUR | 0.19 EUR | 0 |
| 2024-09-16 | 0.04 EUR | 0.19 EUR | 0 |
| 2024-09-23 | 0.04 EUR | 0.18 EUR | 0 |
| 2024-09-30 | 0.03 EUR | 0.18 EUR | 0 |
| 2024-10-07 | 0.03 EUR | 0.18 EUR | 0 |
| 2024-10-14 | 0.03 EUR | 0.18 EUR | 0 |
| 2024-10-21 | 0.03 EUR | 0.18 EUR | 0 |
| 2024-10-28 | 0.03 EUR | 0.18 EUR | 0 |
| 2024-11-06 | 0.02 EUR | 0.18 EUR | 0 |
| 2024-11-11 | 0.03 EUR | 0.18 EUR | 0 |
| 2024-11-18 | 0.03 EUR | 0.19 EUR | 0 |
| 2024-11-25 | 0.03 EUR | 0.19 EUR | 0 |
| 2024-12-02 | 0.03 EUR | 0.19 EUR | 1 |
| 2024-12-09 | 0.03 EUR | 0.19 EUR | 0 |
| 2024-12-19 | 0.03 EUR | 0.19 EUR | 1 |
| 2024-12-23 | 0.03 EUR | 0.19 EUR | 1 |
| 2024-12-30 | 0.03 EUR | 0.19 EUR | 0 |
| 2025-01-01 | 0.03 EUR | 0.19 EUR | 0 |
| 2025-01-06 | 0.03 EUR | 0.19 EUR | 0 |
| 2025-01-13 | 0.03 EUR | 0.19 EUR | 0 |
| 2025-01-20 | 0.03 EUR | 0.19 EUR | 0 |
| 2025-01-27 | 0.03 EUR | 0.19 EUR | 0 |
| 2025-02-03 | 0.03 EUR | 0.19 EUR | 0 |
| 2025-02-10 | 0.03 EUR | 0.19 EUR | 0 |
| 2025-02-18 | 0.08 EUR | 0.21 EUR | 0 |
| 2025-04-27 | 0.06 EUR | 0.20 EUR | 0 |
| 2025-04-28 | 0.05 EUR | 0.19 EUR | 0 |
| 2025-05-06 | 0.05 EUR | 0.19 EUR | 0 |
| 2025-05-12 | 0.05 EUR | 0.19 EUR | 0 |
| 2025-05-19 | 0.34 EUR | 0.34 EUR | 0 |
| 2025-05-28 | 0.34 EUR | 0.34 EUR | 0 |
| 2025-06-03 | 0.34 EUR | 0.34 EUR | 0 |
| 2025-06-10 | 0.33 EUR | 0.33 EUR | 0 |
| 2025-06-17 | 0.33 EUR | 0.33 EUR | 0 |
| 2025-06-23 | 0.33 EUR | 0.33 EUR | 1 |
| 2025-07-01 | 0.33 EUR | 0.33 EUR | 0 |
| 2025-07-08 | 0.23 EUR | 0.28 EUR | 0 |
| 2025-07-15 | 0.04 EUR | 0.18 EUR | 0 |
| 2025-07-22 | 0.04 EUR | 0.18 EUR | 1 |
| 2025-07-29 | 0.21 EUR | 0.27 EUR | 0 |
| 2025-08-05 | 0.46 EUR | 0.33 EUR | 0 |
| 2025-08-12 | 0.04 EUR | 0.04 EUR | 0 |
| 2025-08-18 | 0.27 EUR | 0.04 EUR | 1 |
| 2025-08-25 | 0.73 EUR | 0.04 EUR | 0 |
| 2025-09-02 | 0.73 EUR | 0.04 EUR | 0 |
| 2025-09-09 | 0.73 EUR | 0.04 EUR | 0 |
| 2025-09-15 | 0.73 EUR | 0.04 EUR | 0 |
| 2025-09-23 | 0.38 EUR | 0.27 EUR | 0 |
| 2025-09-29 | 0.32 EUR | 0.32 EUR | 0 |
| 2025-10-06 | 0.32 EUR | 0.32 EUR | 0 |
| 2025-10-13 | 0.32 EUR | 0.32 EUR | 0 |
| 2025-10-20 | 0.32 EUR | 0.32 EUR | 0 |
| 2025-10-27 | 0.32 EUR | 0.32 EUR | 0 |
| 2025-11-03 | 0.32 EUR | 0.32 EUR | 0 |
| 2025-11-10 | 0.31 EUR | 0.31 EUR | 4 |
| 2025-11-18 | 0.31 EUR | 0.31 EUR | 0 |
| 2025-11-24 | 0.32 EUR | 0.32 EUR | 1 |
| 2025-12-03 | 0.32 EUR | 0.32 EUR | 0 |
| 2025-12-08 | 0.32 EUR | 0.32 EUR | 0 |
| 2025-12-15 | 0.56 EUR | 0.32 EUR | 0 |
| 2025-12-22 | 0.87 EUR | 0.32 EUR | 1 |
| 2025-12-29 | 0.94 EUR | 0.32 EUR | 0 |
| 2026-01-01 | 0.93 EUR | 0.32 EUR | 0 |
| 2026-01-05 | 0.52 EUR | 0.32 EUR | 0 |
| 2026-01-13 | 0.32 EUR | 0.32 EUR | 0 |
| 2026-01-20 | 0.32 EUR | 0.32 EUR | 0 |
| 2026-01-26 | 0.31 EUR | 0.31 EUR | 0 |
| 2026-02-02 | 0.31 EUR | 0.31 EUR | 0 |
| 2026-02-09 | 0.31 EUR | 0.31 EUR | 0 |
| 2026-02-16 | 0.31 EUR | 0.31 EUR | 0 |
| 2026-02-23 | 0.31 EUR | 0.31 EUR | 0 |
| 2026-03-02 | 0.31 EUR | 0.31 EUR | 0 |
| 2026-03-10 | 0.31 EUR | 0.31 EUR | 0 |
| 2026-03-16 | 0.31 EUR | 0.31 EUR | 0 |
| 2026-04-02 | 0.31 EUR | 0.31 EUR | 0 |
| 2026-04-07 | 0.31 EUR | 0.31 EUR | 1 |
| 2026-04-14 | 0.30 EUR | 0.30 EUR | 0 |
| 2026-04-23 | 0.29 EUR | 0.29 EUR | 0 |
| 2026-04-30 | 0.30 EUR | 0.30 EUR | 0 |
| 2026-05-05 | 0.29 EUR | 0.29 EUR | 0 |
| 2026-05-14 | 0.29 EUR | 0.29 EUR | 0 |
| 2026-05-20 | 0.30 EUR | 0.30 EUR | 0 |
| 2026-05-25 | 0.30 EUR | 0.30 EUR | 0 |
| 2026-06-01 | 0.30 EUR | 0.30 EUR | 0 |
| 2026-06-08 | 0.31 EUR | 0.31 EUR | 0 |
| 2026-06-15 | 0.30 EUR | 0.30 EUR | 0 |
| 2026-06-23 | 0.31 EUR | 0.31 EUR | 0 |
| 2026-06-29 | 0.31 EUR | 0.31 EUR | 0 |
| 2026-07-06 | 0.31 EUR | 0.31 EUR | 0 |
| 2026-07-13 | 0.30 EUR | 0.30 EUR | 0 |
| 2026-07-20 | 0.30 EUR | 0.30 EUR | 0 |
| 2026-07-27 | 0.30 EUR | 0.30 EUR | 0 |
| 2026-08-03 | 0.30 EUR | 0.30 EUR | 0 |
| 2026-08-10 | 0.30 EUR | 0.30 EUR | 0 |
| 2026-08-17 | 0.31 EUR | 0.31 EUR | 0 |
| 2026-08-24 | 0.31 EUR | 0.31 EUR | 0 |
| 2026-09-01 | 0.31 EUR | 0.31 EUR | 0 |
Häufig gestellte Fragen zu Erfindungsreiche Rückkehr
Welcher Kartentyp ist Erfindungsreiche Rückkehr?
Erfindungsreiche Rückkehr ist Hexerei Karte hinein Magic: the Gathering MTG.
Welchen Effekt hat Erfindungsreiche Rückkehr?
Bringe eine Kreaturenkarte deiner Wahl aus deinem Friedhof auf deine Hand zurück. Falls du ein Artefakt kontrollierst, ziehe eine Karte.
Was kostet Erfindungsreiche Rückkehr?
Erfindungsreiche Rückkehr beginnt derzeit um € 0,31. Sehen Sie sich die Live-Preise mehrerer Verkäufer oben im Abschnitt „Wo kaufen“ an.
Aus welchem Set stammt Erfindungsreiche Rückkehr?
Erfindungsreiche Rückkehr wurde erstmals im Set veröffentlicht Aether Revolt, illustriert von Titus Lunter.
Wie ist die Legalität von Erfindungsreiche Rückkehr?
Die Legalität hängt vom Turnierformat ab – Erfindungsreiche Rückkehr kann in einigen Formaten legal und in anderen verboten oder eingeschränkt sein. Die vollständige Aufschlüsselung nach Format finden Sie oben im Abschnitt „Rechtmäßigkeit“.
Welche Karten ähneln Erfindungsreiche Rückkehr?
Buchstaben ähnlich Erfindungsreiche Rückkehr enthalten Morbides Ausplündern, Zurückholung, Seelenverwertung. Die vollständige Liste finden Sie oben im Abschnitt „Ähnliche Karten“.





Reaktionen
0
0 Kommentare
Sei der erste der kommentiert